Skip Page Navigation
NASA JPL Caltech
NASA Logo - Jet Propulsion Laboratory + View the NASA Portal
+ Center for Near-Earth Object Studies
JPL Home Earth Solar System Stars & Galaxies Technology
JPL Solar System Dynamics
BODIES ORBITS EPHEMERIDES TOOLS PHYSICAL DATA DISCOVERY FAQ SITE MAP
JPL Small-Body Database Browser
Search: [ help ]  
452434 (2003 FC45)
Classification: Main-belt Asteroid          SPK-ID: 2452434
Ephemeris | Orbit Diagram | Orbital Elements | Mission Design | Physical Parameters | Discovery Circumstances ]

[ show orbit diagram ]
Orbital Elements at Epoch 2459000.5 (2020-May-31.0) TDB
Reference: JPL 9 (heliocentric ecliptic J2000)
 Element Value Uncertainty (1-sigma)   Units 
e .2147701830223283 5.6377e-08  
a 2.229713692047138 1.8045e-08 au
q 1.750837674318783 1.3288e-07 au
i 6.888644017518038 1.3364e-05 deg
node 349.3487563082078 6.5727e-05 deg
peri 101.6625023038769 7.4456e-05 deg
M 119.6748920545977 3.435e-05 deg
tp 2458596.228969380446
(2019-Apr-22.72896938)
0.00011352 TDB
period 1216.107811124182
3.33
1.4763e-05
4.042e-08
d
yr
n .2960263857422414 3.5936e-09 deg/d
Q 2.708589709775493 2.1921e-08 au
  Orbit Determination Parameters
   # obs. used (total)      125  
   data-arc span      6241 days (17.09 yr)  
   first obs. used      2003-03-24  
   last obs. used      2020-04-24  
   planetary ephem.      DE431  
   SB-pert. ephem.      SB431-N16  
   condition code      0  
   norm. resid. RMS      .67733  
   source      ORB  
   producer      Otto Matic  
   solution date      2020-May-22 03:59:45  

Additional Information
 Earth MOID = .782825 au 
 Jupiter MOID = 2.51356 au 
 T_jup = 3.603 
[ show covariance matrix ]

Ephemeris | Orbit Diagram | Orbital Elements | Mission Design | Physical Parameters | Discovery Circumstances ]

Physical Parameter Table
Parameter Symbol Value Units Sigma Reference Notes
absolute magnitude H 17.7   n/a MPO460667  

452434 (2003 FC45)          Discovered 2003-Mar-24 by Spacewatch at Kitt Peak
Reference: Last Updated: 2016-01-04

Alternate Designations
 2003 FC45 = 2008 SW75 
Ephemeris | Orbit Diagram | Orbital Elements | Mission Design | Physical Parameters | Discovery Circumstances ]
ABOUT SSD CREDITS/AWARDS PRIVACY/COPYRIGHT GLOSSARY LINKS
FirstGov 2020-Aug-15 08:35 UT
(server date/time)  
NASA Home Page
Site Manager:   Ryan S. Park
Webmaster  Alan B. Chamberlin